Regional Weather Roundup
Issued by NWS Sterling, VA

Home | Current Version | Previous Version | Text Only | Print | Product List | Glossary On
Versions: 1 2 3 4 5 6 7 8 9 10 11 12 13 14 15 16 17 18 19 20 21 22 23 24 25 26 27 28 29 30 31 32 33 34 35 36 37 38 39 40 41 42 43 44 45 46 47 48 49 50
000
ASUS41 KLWX 280010
RWRLWX

REGIONAL WEATHER ROUNDUP
NATIONAL WEATHER SERVICE BALTIMORE MD/WASHINGTON DC
800 PM EDT WED MAY 27 2015

Note: "FAIR" indicates few or no clouds below 12,000 feet
with no significant weather and/or obstructions to visibility.
 TC=TEMPERATURE CELSIUS

 * =Non NWS site. Station does not report precipitation (e.g. rain,
    snow, etc.), thunder, or fog.

DCZ001-MDZ009-015-VAZ040>042-051-053>054-280100-
WASHINGTON METRO

CITY           SKY/WX    TMP DP  RH WIND       PRES   REMARKS
WASHINGTON NAT MOCLDY    82  69  64 SE8       30.11F
DULLES         MOCLDY    75  72  90 CALM      30.12S
ANDREWS AFB    MOCLDY    77  68  73 E6        30.12S
FT BELVOIR     MOCLDY    78  70  76 E2        30.11S
QUANTICO       MOCLDY    81  70  69 CALM      30.11S
LEESBURG*      MOCLDY    79  72  78 SW10      30.13S
MANASSAS*      CLEAR     81  70  69 CALM      30.11F
GAITHERSBURG*  MOCLDY    73  70  88 CALM      30.17R

$$

MDZ006>007-011-014-280100-
BALTIMORE METRO

CITY           SKY/WX    TMP DP  RH WIND       PRES   REMARKS
BWI AIRPORT    MOCLDY    77  67  71 CALM      30.11S
MD SCIENCE CTR   N/A     78  66  66 MISG      30.12S
MARTIN STATE   MOCLDY    75  70  83 CALM      30.13S
ANNAPOLIS      MOCLDY    75  68  78 SE9       30.12F

$$

MDZ012-015-019>023-280100-
MARYLAND EASTERN SHORE

CITY           SKY/WX    TMP DP  RH WIND       PRES   REMARKS
OCEAN CITY     CLEAR     70  63  78 SW14G24   30.18S
SALISBURY      CLEAR     73  65  75 S9        30.15S

$$

MDZ017>025-280100-
SOUTHERN MARYLAND

CITY           SKY/WX    TMP DP  RH WIND       PRES   REMARKS
PATUXENT RIVER MOCLDY    76  69  79 VRB3      30.13R THUNDER
ST INIGOES     PTCLDY    76  69  79 SE12      30.12S
LEONARDTOWN*   NOT AVBL

$$

MDZ003>005-280100-
NORTH CENTRAL MARYLAND

CITY           SKY/WX    TMP DP  RH WIND       PRES   REMARKS
FREDERICK*     CLEAR     79  70  73 CALM      30.14S
HAGERSTOWN APT PTCLDY    80  66  62 S6        30.11S
WESTMINSTER*   NOT AVBL

$$

MDZ501>502-280100-
WESTERN MARYLAND

CITY           SKY/WX    TMP DP  RH WIND       PRES   REMARKS
OAKLAND*       NOT AVBL
CUMBERLAND*    NOT AVBL

$$

VAZ025>031-280100-
SHENANDOAH VALLEY

CITY           SKY/WX    TMP DP  RH WIND       PRES   REMARKS
WINCHESTER*    MOCLDY    81  63  54 CALM      30.12S
FRONT ROYAL*   FAIR      77  68  73 CALM      30.11S
LURAY*         FAIR      81  70  69 CALM      30.13S
NEW MARKET*    FAIR      78  67  68 S5        30.10S
STAUNTON*      MOCLDY    81  64  56 S7        30.16S
WAYNESBORO*    FAIR      77  64  62 S8        30.16S

$$

WVZ021-048>050-054>055-280100-
EASTERN WEST VIRGINIA PANHANDLE

CITY           SKY/WX    TMP DP  RH WIND       PRES   REMARKS
MARTINSBURG    PTCLDY    77  69  76 CALM      30.12S
PETERSBURG*    MOCLDY    80  63  54 E3        30.12S

$$

VAZ036>039-050-280100-
CENTRAL FOOTHILLS

CITY           SKY/WX    TMP DP  RH WIND       PRES   REMARKS
CHARLOTTESVILL MOCLDY    80  64  58 SW7       30.13S
CULPEPER*      MOCLDY    81  66  60 CALM      30.12S
ORANGE*        MOCLDY    81  68  65 CALM      30.14S
GORDONSVILLE*  FAIR      77  67  70 CALM      30.12S
WARRENTON*     FAIR      80  71  74 N3        30.12S

$$

VAZ055>057-280100-
NORTH AND CENTRAL PIEDMONT

CITY           SKY/WX    TMP DP  RH WIND       PRES   REMARKS
FREDERICKSBRG* MOCLDY    86  67  53 S3        30.10S
STAFFORD*      MOCLDY    82  63  52 CALM      30.15S

$$

NCZ024-NYZ072-PAZ021-071-VAZ022-071-280100-
OTHER REGIONAL OBSERVATIONS

CITY           SKY/WX    TMP DP  RH WIND       PRES   REMARKS
NEW YORK CITY  LGT RAIN  75  64  68 CALM      30.16R
PHILADELPHIA   CLOUDY    75  69  81 S7        30.13R
PITTSBURGH     MOCLDY    79  61  53 S7        30.10S
ROANOKE        PTCLDY    80  63  55 S8        30.18R
RICHMOND       MOCLDY    85  65  51 SW8       30.12F
RALEIGH        LGT RAIN  73  69  87 CALM      30.20R

$$

ANZ530>537-280100-
MARINE OBSERVATIONS

STATION/POSITION TIME  TEMP    WIND        PRES
                       AIR SEA DIR/SP/G
                 (UTC) (F)     (DEG/KT/KT) (MB)
THOMAS PT LIGHT  0000   73 68  160/ 17/ 18 1020.0F
BALT KEY BRIDGE  2300   76      CALM  /  2 1019.6F
COVE POINT       2300   72     280/  9/ 17 1020.8R
LEWISETTA        2300   79 76              1019.7R
SOLOMONS ISLAND  2300      75                N/A
PINEY POINT      2300          170/ 12/ 14   N/A

$$



USA.gov is the U.S. government's official web portal to all federal, state and local government web resources and services.